| time (UTC) | temp F | wind direction | speed MPH | gust MPH | rain 1hr in | rain 24hr in | rain mn in | humidity % | barometer mb |
| 20260901144213 | 57 | 203 | 3.0 | 3.0 | 0.00 | 0.00 | 0.00 | 96 | 1013.7 |
| 20260901143653 | 57 | 225 | 0.0 | 0.0 | 0.00 | 0.00 | 0.00 | 96 | 1013.7 |
| 20260901143133 | 56 | 225 | 1.0 | 1.0 | 0.00 | 0.00 | 0.00 | 96 | 1013.7 |
| 20260901142058 | 56 | 248 | 0.0 | 0.0 | 0.00 | 0.00 | 0.00 | 96 | 1013.6 |
| 20260901141018 | 56 | 248 | 0.0 | 0.0 | 0.00 | 0.00 | 0.00 | 96 | 1013.4 |
| 20260901140503 | 56 | 225 | 0.0 | 0.0 | 0.00 | 0.00 | 0.00 | 96 | 1013.3 |
| 20260901135943 | 56 | 248 | 0.0 | 0.0 | 0.00 | 0.00 | 0.00 | 96 | 1013.3 |
| 20260901135443 | 56 | 180 | 2.0 | 2.0 | 0.00 | 0.00 | 0.00 | 96 | 1013.3 |
| 20260901134923 | 56 | 225 | 2.0 | 2.0 | 0.00 | 0.00 | 0.00 | 96 | 1013.1 |
| 20260901134403 | 56 | 248 | 1.0 | 1.0 | 0.00 | 0.00 | 0.00 | 96 | 1013.1 |
| 20260901133848 | 56 | 248 | 0.0 | 0.0 | 0.00 | 0.00 | 0.00 | 96 | 1013.1 |
| 20260901133328 | 56 | 270 | 0.0 | 0.0 | 0.00 | 0.00 | 0.00 | 96 | 1013.1 |
| 20260901132808 | 56 | 248 | 0.0 | 0.0 | 0.00 | 0.00 | 0.00 | 96 | 1013.0 |
| 20260901132249 | 56 | 225 | 0.0 | 0.0 | 0.00 | 0.00 | 0.00 | 96 | 1013.0 |
| 20260901131748 | 56 | 225 | 0.0 | 0.0 | 0.00 | 0.00 | 0.00 | 96 | 1012.8 |
| 20260901131233 | 55 | 248 | 0.0 | 0.0 | 0.00 | 0.00 | 0.00 | 96 | 1012.8 |
| 20260901130713 | 55 | 248 | 0.0 | 0.0 | 0.00 | 0.00 | 0.00 | 96 | 1012.8 |
| 20260901130153 | 55 | 248 | 0.0 | 0.0 | 0.00 | 0.00 | 0.00 | 96 | 1012.8 |
| 20260901124558 | 55 | 225 | 0.0 | 0.0 | 0.00 | 0.00 | 0.00 | 96 | 1012.6 |
| 20260901124038 | 55 | 180 | 0.0 | 0.0 | 0.00 | 0.00 | 0.00 | 96 | 1012.6 |
| 20260901123003 | 55 | 248 | 0.0 | 0.0 | 0.00 | 0.00 | 0.00 | 96 | 1012.6 |
| 20260901122443 | 55 | 225 | 0.0 | 0.0 | 0.00 | 0.00 | 0.00 | 96 | 1012.6 |
| 20260901121923 | 54 | 248 | 0.0 | 0.0 | 0.00 | 0.00 | 0.00 | 96 | 1012.6 |
| 20260901121403 | 54 | 225 | 0.0 | 0.0 | 0.00 | 0.00 | 0.00 | 96 | 1012.6 |
| 20260901120328 | 54 | 225 | 0.0 | 0.0 | 0.00 | 0.00 | 0.00 | 96 | 1012.6 |
| 20260901115808 | 54 | 203 | 0.0 | 0.0 | 0.00 | 0.00 | 0.00 | 96 | 1012.6 |
| 20260901115248 | 54 | 225 | 0.0 | 0.0 | 0.00 | 0.00 | 0.00 | 96 | 1012.6 |
| 20260901114733 | 54 | 248 | 0.0 | 0.0 | 0.00 | 0.00 | 0.00 | 96 | 1012.6 |
| 20260901114233 | 54 | 225 | 0.0 | 0.0 | 0.00 | 0.00 | 0.00 | 96 | 1012.6 |
| 20260901113213 | 53 | 225 | 0.0 | 0.0 | 0.00 | 0.00 | 0.00 | 96 | 1012.6 |
| 20260901112653 | 53 | 248 | 0.0 | 0.0 | 0.00 | 0.00 | 0.00 | 96 | 1012.6 |
| 20260901112133 | 54 | 225 | 0.0 | 0.0 | 0.00 | 0.00 | 0.00 | 96 | 1012.6 |
| 20260901111613 | 54 | 248 | 0.0 | 0.0 | 0.00 | 0.00 | 0.00 | 96 | 1012.6 |
| 20260901111038 | 54 | 203 | 0.0 | 0.0 | 0.00 | 0.00 | 0.00 | 96 | 1012.6 |
| 20260901110518 | 54 | 180 | 0.0 | 0.0 | 0.00 | 0.00 | 0.00 | 96 | 1013.0 |
| 20260901105958 | 54 | 248 | 0.0 | 0.0 | 0.00 | 0.00 | 0.00 | 96 | 1013.0 |
| 20260901105443 | 54 | 158 | 0.0 | 0.0 | 0.00 | 0.00 | 0.00 | 96 | 1013.0 |
| 20260901104923 | 54 | 225 | 0.0 | 0.0 | 0.00 | 0.00 | 0.00 | 96 | 1013.0 |
| 20260901104343 | 54 | 180 | 0.0 | 0.0 | 0.00 | 0.00 | 0.00 | 96 | 1013.0 |
| 20260901103828 | 53 | 203 | 0.0 | 0.0 | 0.00 | 0.00 | 0.00 | 96 | 1013.0 |
| 20260901102748 | 53 | 225 | 0.0 | 0.0 | 0.00 | 0.00 | 0.00 | 96 | 1012.9 |
| 20260901101714 | 52 | 225 | 0.0 | 0.0 | 0.00 | 0.00 | 0.00 | 96 | 1012.8 |
| 20260901101153 | 52 | 248 | 0.0 | 0.0 | 0.00 | 0.00 | 0.00 | 96 | 1012.8 |
| 20260901100113 | 50 | 248 | 0.0 | 0.0 | 0.00 | 0.00 | 0.00 | 95 | 1012.6 |
| 20260901095558 | 50 | 225 | 0.0 | 0.0 | 0.00 | 0.00 | 0.00 | 95 | 1012.6 |
| 20260901095038 | 50 | 225 | 0.0 | 0.0 | 0.00 | 0.00 | 0.00 | 95 | 1012.6 |
| 20260901094518 | 50 | 225 | 0.0 | 0.0 | 0.00 | 0.00 | 0.00 | 95 | 1012.6 |
| 20260901093443 | 50 | 225 | 0.0 | 0.0 | 0.00 | 0.00 | 0.00 | 95 | 1012.4 |
| 20260901092923 | 50 | 225 | 0.0 | 0.0 | 0.00 | 0.00 | 0.00 | 95 | 1012.4 |
| 20260901091828 | 50 | 248 | 0.0 | 0.0 | 0.00 | 0.00 | 0.00 | 95 | 1012.4 |
| 20260901091308 | 50 | 248 | 0.0 | 0.0 | 0.00 | 0.00 | 0.00 | 95 | 1012.6 |
| 20260901090809 | 50 | 225 | 0.0 | 0.0 | 0.00 | 0.00 | 0.00 | 95 | 1012.6 |
| 20260901090248 | 50 | 225 | 0.0 | 0.0 | 0.00 | 0.00 | 0.00 | 95 | 1012.4 |
| 20260901084558 | 51 | 248 | 0.0 | 0.0 | 0.00 | 0.00 | 0.00 | 95 | 1012.6 |
| 20260901084038 | 51 | 225 | 0.0 | 0.0 | 0.00 | 0.00 | 0.00 | 95 | 1012.6 |
| 20260901083518 | 51 | 225 | 0.0 | 0.0 | 0.00 | 0.00 | 0.00 | 94 | 1012.6 |
| 20260901082958 | 51 | 225 | 0.0 | 0.0 | 0.00 | 0.00 | 0.00 | 94 | 1012.2 |
| 20260901082458 | 51 | 225 | 0.0 | 0.0 | 0.00 | 0.00 | 0.00 | 94 | 1012.2 |
| 20260901081944 | 51 | 225 | 0.0 | 0.0 | 0.00 | 0.00 | 0.00 | 94 | 1012.2 |
| 20260901081423 | 51 | 248 | 0.0 | 0.0 | 0.00 | 0.00 | 0.00 | 94 | 1012.4 |
| 20260901080843 | 51 | 225 | 0.0 | 0.0 | 0.00 | 0.00 | 0.00 | 94 | 1012.4 |
| 20260901075713 | 51 | 225 | 0.0 | 0.0 | 0.00 | 0.00 | 0.00 | 94 | 1012.2 |
| 20260901074113 | 51 | 225 | 0.0 | 0.0 | 0.00 | 0.00 | 0.00 | 93 | 1012.2 |
| 20260901073558 | 52 | 225 | 0.0 | 0.0 | 0.00 | 0.00 | 0.00 | 93 | 1012.2 |
| 20260901073038 | 52 | 203 | 0.0 | 0.0 | 0.00 | 0.00 | 0.00 | 93 | 1012.2 |
| 20260901072458 | 52 | 203 | 0.0 | 0.0 | 0.00 | 0.00 | 0.00 | 93 | 1012.2 |
| 20260901071443 | 52 | 225 | 0.0 | 0.0 | 0.00 | 0.00 | 0.00 | 93 | 1012.2 |
| 20260901070923 | 53 | 203 | 0.0 | 0.0 | 0.00 | 0.00 | 0.00 | 93 | 1012.2 |
| 20260901070343 | 53 | 248 | 0.0 | 0.0 | 0.00 | 0.00 | 0.00 | 93 | 1012.2 |
| 20260901065809 | 53 | 225 | 0.0 | 0.0 | 0.00 | 0.00 | 0.00 | 93 | 1012.2 |
| 20260901065248 | 53 | 203 | 0.0 | 0.0 | 0.00 | 0.00 | 0.00 | 93 | 1012.2 |
| 20260901064729 | 53 | 158 | 0.0 | 0.0 | 0.00 | 0.00 | 0.00 | 93 | 1012.2 |
| 20260901064213 | 53 | 270 | 1.0 | 1.0 | 0.00 | 0.00 | 0.00 | 93 | 1012.2 |
| 20260901063113 | 54 | 203 | 0.0 | 0.0 | 0.00 | 0.00 | 0.00 | 93 | 1012.2 |
| 20260901062558 | 54 | 248 | 0.0 | 0.0 | 0.00 | 0.00 | 0.00 | 93 | 1012.2 |
| 20260901062038 | 54 | 180 | 0.0 | 0.0 | 0.00 | 0.00 | 0.00 | 93 | 1012.2 |
| 20260901061519 | 54 | 203 | 1.0 | 1.0 | 0.00 | 0.00 | 0.00 | 93 | 1012.4 |
| 20260901060958 | 54 | 270 | 0.0 | 0.0 | 0.00 | 0.00 | 0.00 | 93 | 1012.4 |
| 20260901060444 | 54 | 225 | 2.0 | 2.0 | 0.00 | 0.00 | 0.00 | 93 | 1012.4 |
| 20260901055924 | 55 | 225 | 3.0 | 3.0 | 0.00 | 0.00 | 0.00 | 93 | 1012.4 |
| 20260901055344 | 55 | 248 | 1.0 | 1.0 | 0.00 | 0.00 | 0.00 | 93 | 1012.4 |
| 20260901054828 | 55 | 270 | 2.0 | 2.0 | 0.00 | 0.00 | 0.00 | 92 | 1012.4 |
| 20260901053924 | 55 | 203 | 0.0 | 0.0 | 0.00 | 0.00 | 0.00 | 92 | 1012.4 |
| 20260901052808 | 56 | 248 | 0.0 | 0.0 | 0.00 | 0.00 | 0.00 | 91 | 1012.6 |
| 20260901052249 | 56 | 270 | 0.0 | 0.0 | 0.00 | 0.00 | 0.00 | 91 | 1012.6 |
| 20260901050634 | 56 | 270 | 0.0 | 0.0 | 0.00 | 0.00 | 0.00 | 90 | 1012.4 |
| 20260901050059 | 56 | 225 | 3.0 | 3.0 | 0.00 | 0.00 | 0.00 | 90 | 1012.4 |
| 20260901045018 | 57 | 270 | 4.0 | 4.0 | 0.00 | 0.00 | 0.00 | 90 | 1012.2 |
| 20260901044459 | 57 | 248 | 3.0 | 3.0 | 0.00 | 0.00 | 0.00 | 90 | 1012.2 |
| 20260901043938 | 57 | 225 | 4.0 | 4.0 | 0.00 | 0.00 | 0.00 | 90 | 1012.1 |
| 20260901043404 | 57 | 293 | 3.0 | 3.0 | 0.00 | 0.00 | 0.00 | 90 | 1012.1 |
| 20260901042844 | 57 | 248 | 3.0 | 3.0 | 0.00 | 0.00 | 0.00 | 90 | 1012.1 |
| 20260901041809 | 57 | 270 | 3.0 | 3.0 | 0.00 | 0.00 | 0.00 | 90 | 1011.9 |
| 20260901035709 | 57 | 203 | 4.0 | 4.0 | 0.00 | 0.00 | 0.00 | 90 | 1011.9 |
| 20260901034809 | 57 | 225 | 4.0 | 4.0 | 0.00 | 0.00 | 0.00 | 90 | 1011.6 |
| 20260901034249 | 57 | 0 | 4.0 | 4.0 | 0.00 | 0.00 | 0.00 | 90 | 1011.6 |
| 20260901033709 | 72 | 248 | 5.0 | 5.0 | 0.00 | 0.00 | 0.00 | 62 | 1011.1 |
| 20260831233919 | 71 | 203 | 6.0 | 6.0 | 0.00 | 0.00 | 0.00 | 63 | 1011.2 |
| 20260831230304 | 73 | 203 | 6.0 | 6.0 | 0.00 | 0.00 | 0.00 | 60 | 1011.6 |
| 20260831224629 | 75 | 203 | 5.0 | 5.0 | 0.00 | 0.00 | 0.00 | 59 | 1011.6 |
| 20260831222824 | 74 | 248 | 6.0 | 6.0 | 0.00 | 0.00 | 0.00 | 60 | 1011.9 |
| 20260831221859 | 73 | 225 | 7.0 | 7.0 | 0.00 | 0.00 | 0.00 | 61 | 1011.9 |
| 20260831221129 | 75 | 248 | 7.0 | 7.0 | 0.00 | 0.00 | 0.00 | 58 | 1012.1 |
| 20260831220609 | 76 | 338 | 4.0 | 4.0 | 0.00 | 0.00 | 0.00 | 57 | 1012.1 |
| 20260831214129 | 76 | 270 | 6.0 | 6.0 | 0.00 | 0.00 | 0.00 | 57 | 1012.2 |
| 20260831212629 | 76 | 225 | 5.0 | 5.0 | 0.00 | 0.00 | 0.00 | 57 | 1012.4 |
| 20260831212109 | 74 | 293 | 7.0 | 7.0 | 0.00 | 0.00 | 0.00 | 58 | 1012.4 |
| 20260831211434 | 75 | 248 | 5.0 | 5.0 | 0.00 | 0.00 | 0.00 | 58 | 1012.4 |
| 20260831210629 | 77 | 270 | 5.0 | 5.0 | 0.00 | 0.00 | 0.00 | 56 | 1012.4 |
| 20260831210109 | 79 | 225 | 4.0 | 4.0 | 0.00 | 0.00 | 0.00 | 54 | 1012.4 |
| 20260831201320 | 79 | 90 | 4.0 | 4.0 | 0.00 | 0.00 | 0.00 | 53 | 1012.4 |
| 20260831200744 | 78 | 113 | 3.0 | 3.0 | 0.00 | 0.00 | 0.00 | 54 | 1012.4 |
| 20260831195804 | 76 | 158 | 4.0 | 4.0 | 0.00 | 0.00 | 0.00 | 58 | 1012.6 |
| 20260831195204 | 76 | 135 | 4.0 | 4.0 | 0.00 | 0.00 | 0.00 | 58 | 1012.6 |
| 20260831194649 | 75 | 113 | 4.0 | 4.0 | 0.00 | 0.00 | 0.00 | 59 | 1012.6 |
| 20260831194049 | 75 | 90 | 4.0 | 4.0 | 0.00 | 0.00 | 0.00 | 59 | 1012.9 |
| 20260831193535 | 73 | 23 | 4.0 | 4.0 | 0.00 | 0.00 | 0.00 | 63 | 1012.9 |
| 20260831193029 | 74 | 248 | 3.0 | 3.0 | 0.00 | 0.00 | 0.00 | 61 | 1012.9 |
| 20260831192205 | 73 | 45 | 3.0 | 3.0 | 0.00 | 0.00 | 0.00 | 64 | 1013.0 |
| 20260831191704 | 72 | 135 | 3.0 | 3.0 | 0.00 | 0.00 | 0.00 | 64 | 1013.0 |
| 20260831191144 | 72 | 270 | 3.0 | 3.0 | 0.00 | 0.00 | 0.00 | 66 | 1013.0 |
| 20260831190049 | 70 | 203 | 3.0 | 3.0 | 0.00 | 0.00 | 0.00 | 69 | 1013.1 |
| 20260831185530 | 68 | 90 | 4.0 | 4.0 | 0.00 | 0.00 | 0.00 | 71 | 1013.1 |
| 20260831185014 | 67 | 315 | 2.0 | 2.0 | 0.00 | 0.00 | 0.00 | 74 | 1013.1 |
| 20260831184454 | 66 | 68 | 4.0 | 4.0 | 0.00 | 0.00 | 0.00 | 75 | 1013.1 |
| 20260831183935 | 65 | 135 | 3.0 | 3.0 | 0.00 | 0.00 | 0.00 | 76 | 1013.3 |
| 20260831183414 | 64 | 90 | 3.0 | 3.0 | 0.00 | 0.00 | 0.00 | 78 | 1013.3 |
| 20260831182859 | 63 | 113 | 2.0 | 2.0 | 0.00 | 0.00 | 0.00 | 79 | 1013.3 |
| 20260831182340 | 62 | 90 | 2.0 | 2.0 | 0.00 | 0.00 | 0.00 | 81 | 1013.3 |
| 20260831181819 | 61 | 180 | 1.0 | 1.0 | 0.00 | 0.00 | 0.00 | 82 | 1013.3 |
| 20260831181300 | 60 | 90 | 3.0 | 3.0 | 0.00 | 0.00 | 0.00 | 84 | 1013.3 |
| 20260831180225 | 59 | 45 | 0.0 | 0.0 | 0.00 | 0.00 | 0.00 | 86 | 1013.1 |
| 20260831175704 | 59 | 68 | 0.0 | 0.0 | 0.00 | 0.00 | 0.00 | 87 | 1013.1 |
| 20260831175144 | 58 | 203 | 0.0 | 0.0 | 0.00 | 0.00 | 0.00 | 88 | 1013.1 |
| 20260831174609 | 57 | 23 | 1.0 | 1.0 | 0.00 | 0.00 | 0.00 | 91 | 1013.1 |
| 20260831174049 | 56 | 90 | 2.0 | 2.0 | 0.00 | 0.00 | 0.00 | 92 | 1013.1 |
| 20260831173529 | 55 | 23 | 3.0 | 3.0 | 0.00 | 0.00 | 0.00 | 92 | 1013.1 |
| 20260831173014 | 55 | 45 | 0.0 | 0.0 | 0.00 | 0.00 | 0.00 | 93 | 1012.9 |
| 20260831172454 | 55 | 90 | 3.0 | 3.0 | 0.00 | 0.00 | 0.00 | 93 | 1012.9 |
| 20260831171934 | 56 | 113 | 0.0 | 0.0 | 0.00 | 0.00 | 0.00 | 93 | 1012.9 |
| 20260831171414 | 55 | 113 | 2.0 | 2.0 | 0.00 | 0.00 | 0.00 | 94 | 1012.9 |
| 20260831170859 | 55 | 68 | 0.0 | 0.0 | 0.00 | 0.00 | 0.00 | 94 | 1012.9 |
| 20260831170339 | 55 | 315 | 0.0 | 0.0 | 0.00 | 0.00 | 0.00 | 94 | 1012.8 |
| 20260831165820 | 55 | 0 | 0.0 | 0.0 | 0.00 | 0.00 | 0.00 | 95 | 1012.8 |
| 20260831165259 | 55 | 90 | 0.0 | 0.0 | 0.00 | 0.00 | 0.00 | 95 | 1012.6 |
| 20260831164745 | 54 | 45 | 2.0 | 2.0 | 0.00 | 0.00 | 0.00 | 95 | 1012.6 |
| 20260831164225 | 54 | 68 | 0.0 | 0.0 | 0.00 | 0.00 | 0.00 | 95 | 1012.8 |
| 20260831163645 | 55 | 90 | 0.0 | 0.0 | 0.00 | 0.00 | 0.00 | 95 | 1012.8 |
| 20260831162610 | 54 | 23 | 0.0 | 0.0 | 0.00 | 0.00 | 0.00 | 96 | 1012.6 |
| 20260831162049 | 54 | 45 | 0.0 | 0.0 | 0.00 | 0.00 | 0.00 | 96 | 1012.6 |
| 20260831161529 | 54 | 338 | 0.0 | 0.0 | 0.00 | 0.00 | 0.00 | 96 | 1012.6 |
| 20260831160455 | 54 | 293 | 0.0 | 0.0 | 0.00 | 0.00 | 0.00 | 96 | 1012.6 |
| 20260831154320 | 53 | 113 | 0.0 | 0.0 | 0.00 | 0.00 | 0.00 | 96 | 1012.6 |
| 20260831153800 | 53 | 135 | 0.0 | 0.0 | 0.00 | 0.00 | 0.00 | 96 | 1012.4 |
| 20260831153145 | 53 | 45 | 0.0 | 0.0 | 0.00 | 0.00 | 0.00 | 96 | 1012.4 |
| 20260831151550 | 53 | 68 | 0.0 | 0.0 | 0.00 | 0.00 | 0.00 | 96 | 1012.1 |
| 20260831151030 | 53 | 90 | 0.0 | 0.0 | 0.00 | 0.00 | 0.00 | 96 | 1012.1 |
| 20260831150515 | 53 | 68 | 0.0 | 0.0 | 0.00 | 0.00 | 0.00 | 96 | 1012.1 |
| 20260831145955 | 53 | 45 | 0.0 | 0.0 | 0.00 | 0.00 | 0.00 | 96 | 1012.1 |
| 20260831144915 | 53 | 270 | 0.0 | 0.0 | 0.00 | 0.00 | 0.00 | 96 | 1012.1 |
| 20260831144400 | 52 | 248 | 0.0 | 0.0 | 0.00 | 0.00 | 0.00 | 96 | 1012.1 |